Regional Weather Roundup
Issued by NWS

Home | Current Version | Previous Version | Text Only | Print | Product List | Glossary On
Versions: 1 2 3 4 5 6 7 8 9 10 11 12 13 14 15 16 17 18 19 20 21 22 23 24 25 26 27 28
000
ASUS44 KBMX 212210
RWRAL

ALABAMA REGIONAL WEATHER ROUNDUP
NATIONAL WEATHER SERVICE BIRMINGHAM AL
400 PM CST WED FEB 21 2018

NOTE: "FAIR" INDICATES FEW OR NO CLOUDS BELOW 12,000 FEET
WITH NO SIGNIFICANT WEATHER AND/OR OBSTRUCTIONS TO VISIBILITY.

THE REMARK "TC" DENOTES TEMPERATURE IN DEGREES CELSIUS.

ALZ001>011-014-016>018-020-212300-
NORTH ALABAMA

CITY           SKY/WX    TMP DP  RH WIND       PRES   REMARKS
MUSCLE SHOALS  FAIR      69  57  65 NE9       30.24S
HUNTSVILLE     FAIR      80  63  55 SW12G22   30.23S
DECATUR        FAIR      79  61  53 S16G23    30.24R
HALEYVILLE     FAIR      77  63  61 S13       30.24F
GADSDEN        FAIR      79  66  64 S8        30.27F
$$

ALZ012-013-022-023-030>036-040>044-212300-
WEST CENTRAL ALABAMA

CITY           SKY/WX    TMP DP  RH WIND       PRES   REMARKS
TUSCALOOSA     PTSUNNY   81  64  56 S8        30.20F
DEMOPOLIS        N/A     82  61  49 SE16      30.20S
$$

ALZ015-024>026-033>036-041>044-212300-
CENTRAL ALABAMA

CITY           SKY/WX    TMP DP  RH WIND       PRES   REMARKS
BIRMINGHAM     FAIR      79  61  53 S13G22    30.27S
MONTGOMERY     FAIR      82  62  50 SE15      30.25F
SHELBY CO ARPT FAIR      80  64  58 S9        30.25F
MAXWELL AFB    FAIR      83  62  48 S14       30.24F
GREENVILLE     FAIR      83  57  41 S15G21    30.24F
SELMA          FAIR      82  61  47 S8G15     30.23R
PRATTVILLE     FAIR      83  62  50 S10G16    30.24F
BESSEMER       MOCLDY    78  64  61 S10       30.25S
TALLADEGA      FAIR      81  64  57 S8        30.27F
PELL CITY      CLEAR     79  64  61 S7        30.26S
MARION         FAIR      81  64  56 S17G31    30.21S
SYLACAUGA      FAIR      81  66  59 S7        30.26F
$$

ALZ019-021-028-029-037-038-045>048-212300-
EAST CENTRAL ALABAMA

CITY           SKY/WX    TMP DP  RH WIND       PRES   REMARKS
ANNISTON       CLOUDY    79  63  57 SE10      30.27F
ALEXANDER CITY FAIR      78  69  74 SE6       30.29S
AUBURN         FAIR      80  63  55 SE12      30.31S
$$

ALZ051>064-212300-
SOUTHWEST ALABAMA

CITY           SKY/WX    TMP DP  RH WIND       PRES   REMARKS
MOBILE         HVY RAIN  73  71  93 SE16      30.25S FOG
BROOKLEY FIELD CLOUDY    74  71  91 S12G20    30.26R
EVERGREEN      PTSUNNY   80  64  58 S16       30.26S
$$

ALZ049-050-065>069-212300-
SOUTHEAST ALABAMA

CITY           SKY/WX    TMP DP  RH WIND       PRES   REMARKS
DOTHAN         FAIR      83  61  47 SE15      30.32S
OZARK          PTSUNNY   83  63  50 SE9       30.28S
TROY           PTSUNNY   82  62  50 S13       30.28S
EUFAULA        FAIR      84  63  49 S9        30.28S
$$




USA.gov is the U.S. government's official web portal to all federal, state and local government web resources and services.